Regional Weather Roundup
Issued by NWS

Current Version | Previous Version | Text Only | Print | Product List | Glossary On
Versions: 1 2 3 4 5 6 7 8 9 10 11 12 13 14 15 16 17 18 19 20 21 22 23 24 25 26 27 28 29 30 31 32 33 34 35 36 37 38 39 40 41 42 43 44 45 46 47 48 49 50
000
ASUS46 KSTO 240915
RWRCA

NORTHERN AND CENTRAL CA REGIONAL WEATHER ROUNDUP
NATIONAL WEATHER SERVICE SACRAMENTO CA
200 AM PDT SAT JUN 24 2017

NOTE: FAIR INDICATES FEW OR NO CLOUDS BELOW 12,000 FEET WITH NO
SIGNIFICANT WEATHER AND/OR OBSTRUCTIONS TO VISIBILITY.

CAZ001-003-241000-
NORTHWEST AREA

CITY           SKY/WX    TMP DP  RH WIND       PRES   REMARKS
CRESCENT CITY  MOCLDY    50  49  96 CALM      29.95F
UKIAH          CLEAR     67  56  67 S5        29.92R
$$

CAZ006-505>513-241000-
BAY AREA

CITY           SKY/WX    TMP DP  RH WIND       PRES   REMARKS
SANTA ROSA     CLOUDY    56  54  93 SE6       29.94S
SAN RAFAEL     N/A       61  MM  MM MISG
NAPA           PTCLDY    60  55  83 W15       29.93S
CONCORD        CLEAR     61  55  81 W9        29.91S
OAKLAND CITY   N/A      MM  MM  MM MISG
OAKLAND        CLOUDY    60  57  89 NW12      29.95F
SAN FRAN CITY  N/A       57  MM  97 MISG
SAN FRAN ARPT  CLOUDY    58  54  86 W12       29.94F
LIVERMORE      CLEAR     61  55  81 NW8       29.91S
HAYWARD        CLOUDY    60  53  77 NW7       29.95S
REDWOOD CITY   N/A       62  MM  84 MISG
MOFFETT ARPT   CLOUDY    62  59  90 N8        29.95S
SAN JOSE ARPT  CLOUDY    62  59  90 NW6       29.94F
$$
CAZ034-037-514>518-241000-
CENTRAL COAST

CITY           SKY/WX    TMP DP  RH WIND       PRES   REMARKS
WATSONVILLE    CLOUDY    57  57 100 CALM      29.95F
SALINAS        CLOUDY    58  57  97 CALM      29.94F
MONTEREY       CLOUDY    58  56  93 CALM      29.95F
SAN LUIS OBISP CLOUDY    57  56  96 NW6       29.94R
SANTA MARIA    CLOUDY    55  55 100 W5        29.95R
$$
CAZ015-016-241000-
NORTHERN SACRAMENTO VALLEY

CITY           SKY/WX    TMP DP  RH WIND       PRES   REMARKS
REDDING        CLEAR     79  59  50 NW6       29.85S
RED BLUFF      CLEAR     78  61  55 NW5       29.85R
OROVILLE       CLEAR     80  65  59 S6        29.84S
$$
CAZ016>018-241000-
SOUTHERN SACRAMENTO VALLEY

CITY           SKY/WX    TMP DP  RH WIND       PRES   REMARKS
AUBURN         CLEAR     75  57  53 E6        29.91F
BEALE AFB      CLEAR     74  62  67 S7        29.81S
LINCOLN        FAIR      72  55  56 S9        29.83S
MARYSVILLE     CLEAR     74  61  63 S6        29.83S
SAC INTL ARPT  CLEAR     67  57  70 S10       29.82F
MATHER AIRPORT NOT AVBL
DOWNTOWN SAC   N/A       67  MM  MM MISG
SAC EXEC ARPT  CLEAR     64  57  78 S7        29.84F
VACAVILLE      CLEAR     71  56  58 SW9       29.82F
TRAVIS AFB     CLEAR     60  54  83 SW32G40   29.82S
$$
CAZ019>021-241000-
SAN JOAQUIN VALLEY

CITY           SKY/WX    TMP DP  RH WIND       PRES   REMARKS
STOCKTON       CLEAR     69  56  62 N7        29.84S
MODESTO        CLEAR     75  56  51 N7        29.82S
MERCED         CLEAR     76  54  46 NW10      29.81F
LEMOORE        CLEAR     79  57  46 NW12      29.82S
FRESNO         MOCLDY    80  59  48 NW12      29.82S
HANFORD        CLEAR     78  63  59 NW5       29.82S
BAKERSFIELD    CLEAR     84  59  42 NW7       29.84S
$$
CAZ011-012-071-241000-
NORTHERN MOUNTAINS

CITY           SKY/WX    TMP DP  RH WIND       PRES   REMARKS
YREKA          CLEAR     65  43  44 NE5       30.06S
MOUNT SHASTA   CLEAR     59  46  62 CALM      30.11R
ALTURAS        CLEAR     61  45  55 SE3       30.18S
$$
CAZ011-012-071-241000-
SIERRA NEVADA MTNS

CITY           SKY/WX    TMP DP  RH WIND       PRES   REMARKS
BLUE CANYON    CLEAR     76  47  35 NE7       30.22S
TRUCKEE        CLEAR     54  54 100 CALM      30.29S
TAHOE VLY ARPT CLEAR     56  49  77 S5        30.30S
MAMMOTH LAKES  FAIR      59  38  44 W9        30.37S
$$



USA.gov is the U.S. government's official web portal to all federal, state and local government web resources and services.